2021-10-13 00:03:20 r, 19.27m,0000000002Hz,0000282223c,0000000.612s, 016.7C,00002191
2021-10-13 00:13:20 r, 19.22m,0000000001Hz,0000266907c,0000000.579s, 017.0C,00002191
2021-10-13 00:23:19 r, 20.00m,0000000001Hz,0000546420c,0000001.186s, 017.4C,00002191
2021-10-13 00:33:20 r, 20.20m,0000000001Hz,0000652505c,0000001.416s, 017.7C,00002191
2021-10-13 00:43:19 r, 20.26m,0000000001Hz,0000689139c,0000001.496s, 017.7C,00002191
2021-10-13 00:53:19 r, 19.94m,0000000000Hz,0000513519c,0000001.114s, 017.7C,00002191
2021-10-13 01:03:19 r, 20.16m,0000000001Hz,0000631433c,0000001.370s, 018.0C,00002191
2021-10-13 01:13:21 r, 19.75m,0000000001Hz,0000433893c,0000000.942s, 018.0C,00002191
2021-10-13 01:23:19 r, 19.95m,0000000001Hz,0000518006c,0000001.124s, 018.3C,00002191
2021-10-13 01:33:21 r, 19.88m,0000000001Hz,0000483740c,0000001.050s, 018.3C,00002191
2021-10-13 01:43:19 r, 19.83m,0000000001Hz,0000465603c,0000001.010s, 018.3C,00002191
2021-10-13 01:53:19 r, 19.63m,0000000001Hz,0000387649c,0000000.841s, 018.3C,00002191
2021-10-13 02:03:21 r, 19.36m,0000000002Hz,0000304252c,0000000.660s, 018.3C,00002191
2021-10-13 02:13:20 r, 19.75m,0000000001Hz,0000432899c,0000000.939s, 018.3C,00002191
2021-10-13 02:23:19 r, 20.08m,0000000001Hz,0000586579c,0000001.273s, 018.3C,00002191
2021-10-13 02:33:20 r, 19.88m,0000000001Hz,0000485673c,0000001.054s, 018.3C,00002191
2021-10-13 02:43:21 r, 19.62m,0000000001Hz,0000386833c,0000000.839s, 018.3C,00002191
2021-10-13 02:53:19 r, 20.02m,0000000001Hz,0000555636c,0000001.206s, 018.6C,00002191
2021-10-13 03:03:20 r, 20.01m,0000000001Hz,0000549905c,0000001.193s, 018.6C,00002191
2021-10-13 03:13:20 r, 20.20m,0000000001Hz,0000653503c,0000001.418s, 018.6C,00002191
2021-10-13 03:23:19 r, 20.22m,0000000000Hz,0000667456c,0000001.448s, 018.3C,00002191
2021-10-13 03:33:21 r, 20.38m,0000000000Hz,0000766933c,0000001.664s, 018.3C,00002191
2021-10-13 03:43:19 r, 20.83m,0000000000Hz,0001156511c,0000002.510s, 018.3C,00002191
2021-10-13 03:53:19 r, 20.75m,0000000001Hz,0001078771c,0000002.341s, 018.0C,00002191
2021-10-13 04:03:21 r, 19.81m,0000000001Hz,0000458000c,0000000.994s, 018.0C,00002191
2021-10-13 04:13:19 r, 19.65m,0000000001Hz,0000395345c,0000000.858s, 018.0C,00002191
2021-10-13 04:23:19 r, 20.55m,0000000001Hz,0000908112c,0000001.971s, 018.3C,00002191
2021-10-13 04:33:20 r, 20.79m,0000000000Hz,0001115669c,0000002.421s, 018.0C,00002191
2021-10-13 04:43:20 r, 20.84m,0000000000Hz,0001178633c,0000002.558s, 018.0C,00002191
2021-10-13 04:53:19 r, 20.83m,0000000000Hz,0001159854c,0000002.517s, 018.0C,00002191
2021-10-13 05:03:20 r, 20.38m,0000000001Hz,0000772147c,0000001.676s, 017.7C,00002191
2021-10-13 05:13:20 r, 20.68m,0000000000Hz,0001008861c,0000002.189s, 017.7C,00002191
2021-10-13 05:23:19 r, 20.76m,0000000001Hz,0001097663c,0000002.382s, 017.7C,00002191
2021-10-13 05:33:19 r, 20.79m,0000000001Hz,0001115313c,0000002.420s, 017.4C,00002191
2021-10-13 05:43:21 r, 20.63m,0000000000Hz,0000965860c,0000002.096s, 017.4C,00002191
2021-10-13 05:53:19 r, 20.54m,0000000001Hz,0000886255c,0000001.923s, 017.4C,00002191
2021-10-13 06:03:21 r, 20.61m,0000000000Hz,0000947598c,0000002.056s, 017.4C,00002191
2021-10-13 06:13:20 r, 20.37m,0000000000Hz,0000765824c,0000001.662s, 017.4C,00002191
2021-10-13 06:23:19 r, 20.25m,0000000001Hz,0000688005c,0000001.493s, 017.4C,00002191
2021-10-13 06:33:21 r, 19.47m,0000000002Hz,0000335966c,0000000.729s, 017.4C,00002191
2021-10-13 06:43:20 r, 18.74m,0000000003Hz,0000172527c,0000000.374s, 017.4C,00002191
2021-10-13 06:53:19 r, 17.39m,0000000010Hz,0000049850c,0000000.108s, 017.4C,00002191
2021-10-13 07:03:20 r, 15.83m,0000000039Hz,0000011779c,0000000.026s, 017.4C,00002191
2021-10-13 07:13:20 r, 13.88m,0000000236Hz,0000000000c,0000000.000s, 017.4C,00002191
2021-10-13 07:23:19 r, 11.66m,0000001825Hz,0000000000c,0000000.000s, 017.4C,00002191
2021-10-13 07:33:20 r, 09.81m,0000010048Hz,0000000000c,0000000.000s, 017.4C,00002191
2021-10-13 07:43:20 r, 08.49m,0000034213Hz,0000000000c,0000000.000s, 017.7C,00002191
2021-10-13 07:53:19 r, 07.61m,0000076712Hz,0000000000c,0000000.000s, 017.7C,00002191
2021-10-13 08:03:20 r, 06.84m,0000154936Hz,0000000000c,0000000.000s, 017.7C,00002191
2021-10-13 08:13:21 r, 06.38m,0000237347Hz,0000000000c,0000000.000s, 018.3C,00002191
2021-10-13 08:23:19 r, 05.98m,0000342057Hz,0000000000c,0000000.000s, 018.3C,00002191
2021-10-13 08:33:21 r, 05.90m,0000368763Hz,0000000000c,0000000.000s, 018.6C,00002191
2021-10-13 08:43:19 r, 05.84m,0000389860Hz,0000000000c,0000000.000s, 018.6C,00002191
2021-10-13 08:53:19 r, 05.97m,0000347254Hz,0000000000c,0000000.000s, 018.6C,00002191
2021-10-13 09:03:20 r, 05.87m,0000380031Hz,0000000000c,0000000.000s, 019.0C,00002191
2021-10-13 09:13:20 r, 00.00m,0000488869Hz,0000000000c,0000000.000s, 019.0C,00002191
2021-10-13 09:23:19 r, 00.00m,0000534016Hz,0000000000c,0000000.000s, 019.0C,00002191
2021-10-13 09:33:20 r, 00.00m,0000532001Hz,0000000000c,0000000.000s, 019.3C,00002191
2021-10-13 09:43:20 r, 00.00m,0000481252Hz,0000000000c,0000000.000s, 019.3C,00002191
2021-10-13 09:53:19 r, 00.00m,0000466173Hz,0000000000c,0000000.000s, 019.6C,00002191
2021-10-13 10:03:19 r, 00.00m,0000597636Hz,0000000000c,0000000.000s, 019.6C,00002191
2021-10-13 10:13:21 r, 00.00m,0000597712Hz,0000000000c,0000000.000s, 019.6C,00002191
2021-10-13 10:23:19 r, 00.00m,0000532147Hz,0000000000c,0000000.000s, 019.9C,00002191
2021-10-13 10:33:21 r, 00.00m,0000597686Hz,0000000000c,0000000.000s, 019.6C,00002191
2021-10-13 10:43:20 r, 00.00m,0000597675Hz,0000000000c,0000000.000s, 019.6C,00002191
2021-10-13 10:53:19 r, 00.00m,0000597704Hz,0000000000c,0000000.000s, 019.6C,00002191
2021-10-13 11:03:21 r, 00.00m,0000597694Hz,0000000000c,0000000.000s, 019.9C,00002191
2021-10-13 11:13:20 r, 00.00m,0000597542Hz,0000000000c,0000000.000s, 020.3C,00002191
2021-10-13 11:23:19 r, 00.00m,0000597662Hz,0000000000c,0000000.000s, 020.9C,00002191
2021-10-13 11:33:20 r, 00.00m,0000597539Hz,0000000000c,0000000.000s, 020.9C,00002191
2021-10-13 11:43:20 r, 00.00m,0000597418Hz,0000000000c,0000000.000s, 021.2C,00002191
2021-10-13 11:53:19 r, 00.00m,0000597405Hz,0000000000c,0000000.000s, 021.5C,00002191
2021-10-13 12:03:21 r, 00.00m,0000597404Hz,0000000000c,0000000.000s, 021.9C,00002191
2021-10-13 12:13:27 r, 00.00m,0000597408Hz,0000000000c,0000000.000s, 022.2C,00002191
2021-10-13 12:23:20 r, 00.00m,0000597344Hz,0000000000c,0000000.000s, 022.2C,00002191
2021-10-13 12:33:19 r, 00.00m,0000597404Hz,0000000000c,0000000.000s, 022.5C,00002191
2021-10-13 12:43:21 r, 00.00m,0000597292Hz,0000000000c,0000000.000s, 022.5C,00002191
2021-10-13 12:53:20 r, 00.00m,0000597390Hz,0000000000c,0000000.000s, 022.8C,00002191
2021-10-13 13:03:19 r, 00.00m,0000597184Hz,0000000000c,0000000.000s, 023.2C,00002191
2021-10-13 13:13:20 r, 00.00m,0000597249Hz,0000000000c,0000000.000s, 023.8C,00002191
2021-10-13 13:23:20 r, 00.00m,0000597241Hz,0000000000c,0000000.000s, 023.8C,00002191
2021-10-13 13:33:19 r, 00.00m,0000597236Hz,0000000000c,0000000.000s, 023.8C,00002191
2021-10-13 13:43:20 r, 00.00m,0000597207Hz,0000000000c,0000000.000s, 023.8C,00002191
2021-10-13 13:53:20 r, 00.00m,0000597199Hz,0000000000c,0000000.000s, 023.8C,00002191
2021-10-13 14:03:19 r, 00.00m,0000597214Hz,0000000000c,0000000.000s, 024.1C,00002191
2021-10-13 14:13:22 r, 00.00m,0000597210Hz,0000000000c,0000000.000s, 023.8C,00002191
2021-10-13 14:23:20 r, 00.00m,0000597330Hz,0000000000c,0000000.000s, 023.8C,00002191
2021-10-13 14:33:19 r, 00.00m,0000597304Hz,0000000000c,0000000.000s, 023.5C,00002191
2021-10-13 14:43:21 r, 00.00m,0000597311Hz,0000000000c,0000000.000s, 023.5C,00002191
2021-10-13 14:53:20 r, 00.00m,0000597282Hz,0000000000c,0000000.000s, 023.8C,00002191
2021-10-13 15:03:19 r, 00.00m,0000597205Hz,0000000000c,0000000.000s, 024.1C,00002191
2021-10-13 15:13:21 r, 00.00m,0000597286Hz,0000000000c,0000000.000s, 024.4C,00002191
2021-10-13 15:23:20 r, 00.00m,0000597311Hz,0000000000c,0000000.000s, 024.1C,00002191
2021-10-13 15:33:19 r, 00.00m,0000597276Hz,0000000000c,0000000.000s, 024.1C,00002191
2021-10-13 15:43:20 r, 00.00m,0000597229Hz,0000000000c,0000000.000s, 024.1C,00002191
2021-10-13 15:53:21 r, 00.00m,0000597114Hz,0000000000c,0000000.000s, 023.8C,00002191
2021-10-13 16:03:19 r, 00.00m,0000597178Hz,0000000000c,0000000.000s, 023.8C,00002191
2021-10-13 16:13:20 r, 00.00m,0000429875Hz,0000000000c,0000000.000s, 023.8C,00002191
2021-10-13 16:23:22 r, 00.00m,0000431563Hz,0000000000c,0000000.000s, 023.2C,00002191
2021-10-13 16:33:19 r, 06.14m,0000295834Hz,0000000000c,0000000.000s, 022.8C,00002191
2021-10-13 16:43:21 r, 06.37m,0000239153Hz,0000000000c,0000000.000s, 022.5C,00002191
2021-10-13 16:53:20 r, 06.03m,0000328638Hz,0000000000c,0000000.000s, 022.2C,00002191
2021-10-13 17:03:19 r, 05.91m,0000365787Hz,0000000000c,0000000.000s, 022.2C,00002191
2021-10-13 17:13:21 r, 05.87m,0000379344Hz,0000000000c,0000000.000s, 021.9C,00002191
2021-10-13 17:23:20 r, 00.00m,0000431435Hz,0000000000c,0000000.000s, 021.9C,00002191
2021-10-13 17:33:19 r, 05.97m,0000347780Hz,0000000000c,0000000.000s, 021.9C,00002191
2021-10-13 17:43:20 r, 06.23m,0000273603Hz,0000000000c,0000000.000s, 021.9C,00002191
2021-10-13 17:53:20 r, 07.11m,0000120802Hz,0000000000c,0000000.000s, 021.9C,00002191
2021-10-13 18:03:19 r, 07.47m,0000086874Hz,0000000000c,0000000.000s, 021.9C,00002191
2021-10-13 18:13:21 r, 08.10m,0000048822Hz,0000000000c,0000000.000s, 021.5C,00002191
2021-10-13 18:23:20 r, 08.38m,0000037716Hz,0000000000c,0000000.000s, 021.5C,00002191
2021-10-13 18:33:19 r, 09.24m,0000017146Hz,0000000000c,0000000.000s, 021.5C,00002191
2021-10-13 18:43:20 r, 10.05m,0000008116Hz,0000000000c,0000000.000s, 021.5C,00002191
2021-10-13 18:53:22 r, 11.34m,0000002479Hz,0000000000c,0000000.000s, 021.5C,00002191
2021-10-13 19:03:19 r, 13.11m,0000000483Hz,0000000000c,0000000.000s, 021.5C,00002191
2021-10-13 19:13:21 r, 15.35m,0000000060Hz,0000007607c,0000000.017s, 021.9C,00002191
2021-10-13 19:23:20 r, 17.04m,0000000013Hz,0000035866c,0000000.078s, 021.9C,00002191
2021-10-13 19:33:19 r, 18.18m,0000000004Hz,0000102162c,0000000.222s, 021.9C,00002191
2021-10-13 19:43:20 r, 19.26m,0000000002Hz,0000276530c,0000000.600s, 021.9C,00002191
2021-10-13 19:53:20 r, 19.52m,0000000002Hz,0000350519c,0000000.761s, 021.9C,00002191
2021-10-13 20:03:19 r, 19.48m,0000000002Hz,0000336294c,0000000.730s, 021.9C,00002191
2021-10-13 20:13:20 r, 19.47m,0000000001Hz,0000333880c,0000000.725s, 021.9C,00002191
2021-10-13 20:23:20 r, 19.46m,0000000001Hz,0000332165c,0000000.721s, 021.9C,00002191
2021-10-13 20:33:19 r, 19.44m,0000000002Hz,0000327468c,0000000.711s, 022.2C,00002191
2021-10-13 20:43:20 r, 19.38m,0000000002Hz,0000308113c,0000000.669s, 022.2C,00002191
2021-10-13 20:53:22 r, 19.37m,0000000002Hz,0000305418c,0000000.663s, 022.2C,00002191
2021-10-13 21:03:19 r, 19.56m,0000000001Hz,0000364368c,0000000.791s, 022.2C,00002191
2021-10-13 21:13:22 r, 19.55m,0000000001Hz,0000360119c,0000000.782s, 022.2C,00002191
2021-10-13 21:23:20 r, 19.60m,0000000002Hz,0000377511c,0000000.819s, 022.2C,00002191
2021-10-13 21:33:19 r, 19.66m,0000000001Hz,0000398161c,0000000.864s, 022.5C,00002191
2021-10-13 21:43:21 r, 19.56m,0000000002Hz,0000363927c,0000000.790s, 022.5C,00002191
2021-10-13 21:53:20 r, 19.54m,0000000001Hz,0000357073c,0000000.775s, 022.5C,00002191
2021-10-13 22:03:19 r, 19.70m,0000000001Hz,0000413108c,0000000.897s, 022.5C,00002191
2021-10-13 22:13:20 r, 19.66m,0000000001Hz,0000401290c,0000000.871s, 022.8C,00002191
2021-10-13 22:23:20 r, 19.75m,0000000001Hz,0000434762c,0000000.943s, 022.8C,00002191
2021-10-13 22:33:19 r, 19.98m,0000000001Hz,0000535698c,0000001.163s, 023.2C,00002191
2021-10-13 22:43:21 r, 20.10m,0000000001Hz,0000598214c,0000001.298s, 023.2C,00002191
2021-10-13 22:53:20 r, 19.83m,0000000001Hz,0000468765c,0000001.017s, 023.2C,00002191
2021-10-13 23:03:19 r, 19.62m,0000000001Hz,0000384956c,0000000.835s, 022.8C,00002191
2021-10-13 23:13:20 r, 19.63m,0000000001Hz,0000385041c,0000000.836s, 023.2C,00002191
2021-10-13 23:23:22 r, 19.95m,0000000001Hz,0000518506c,0000001.125s, 023.2C,00002191
2021-10-13 23:33:19 r, 20.12m,0000000001Hz,0000607078c,0000001.317s, 023.2C,00002191
2021-10-13 23:43:22 r, 20.12m,0000000000Hz,0000606974c,0000001.317s, 023.5C,00002191
2021-10-13 23:53:20 r, 19.94m,0000000001Hz,0000517662c,0000001.123s, 023.5C,00002191
